This demonstration page uses our WeatherBlox Daily Observations layout. Learn more.

Left ArrowRight Arrow

Hourly Observations for June 21, 2022

Temp ( °F °C ) Dew Point ( °F °C ) Humidity (%) Winds ( mph kmh ) Pressure ( in mb ) Visibility ( mi km ) Precip ( " mm )
12:15 am 00:15 Partly Cloudy 70 21 54 12 57 57 Calm 30.18 1022 10 16 0.00 0.00
12:35 am 00:35 Cloudy 68 20 54 12 60 60 Calm 30.18 1022 10 16 0.00 0.00
12:55 am 00:55 Cloudy 68 20 54 12 60 60 Calm 30.18 1022 10 16 0.00 0.00
1:15 am 01:15 Cloudy 66 19 54 12 64 64 W 3 6 30.18 1022 10 16 0.00 0.00
1:35 am 01:35 Cloudy 66 19 55 13 68 68 W 3 6 30.17 1022 10 16 0.00 0.00
1:55 am 01:55 Cloudy 66 19 55 13 68 68 Calm 30.17 1022 10 16 0.00 0.00
2:15 am 02:15 Cloudy 68 20 54 12 60 60 Calm 30.16 1021 10 16 0.00 0.00
2:35 am 02:35 Cloudy 68 20 54 12 60 60 Calm 30.16 1021 10 16 0.00 0.00
2:55 am 02:55 Cloudy 68 20 54 12 60 60 W 5 7 30.15 1021 10 16 0.00 0.00
3:15 am 03:15 Cloudy 68 20 54 12 60 60 Calm 30.15 1021 10 16 0.00 0.00
3:35 am 03:35 Cloudy 68 20 54 12 60 60 Calm 30.16 1021 10 16 0.00 0.00
3:55 am 03:55 Cloudy 68 20 54 12 60 60 Calm 30.15 1021 10 16 0.00 0.00
4:15 am 04:15 Cloudy 68 20 54 12 60 60 Calm 30.15 1021 10 16 0.00 0.00
4:35 am 04:35 Mostly Cloudy 64 18 54 12 68 68 Calm 30.15 1021 10 16 0.00 0.00
4:55 am 04:55 Partly Cloudy 64 18 54 12 68 68 Calm 30.16 1021 10 16 0.00 0.00
5:15 am 05:15 Mostly Cloudy 64 18 55 13 73 73 Calm 30.16 1021 10 16 0.00 0.00
5:35 am 05:35 Cloudy 64 18 55 13 73 73 Calm 30.17 1022 10 16 0.00 0.00
5:55 am 05:55 Cloudy 64 18 55 13 73 73 Calm 30.17 1022 10 16 0.00 0.00
6:15 am 06:15 Cloudy 66 19 55 13 68 68 Calm 30.19 1022 10 16 0.00 0.00
6:35 am 06:35 Cloudy 66 19 55 13 68 68 Calm 30.19 1022 10 16 0.00 0.00
6:55 am 06:55 Cloudy 68 20 54 12 60 60 Calm 30.20 1023 10 16 0.00 0.00
7:15 am 07:15 Cloudy 68 20 59 15 73 73 Calm 30.20 1023 10 16 0.00 0.00
7:35 am 07:35 Cloudy with Light Rain 66 19 59 15 78 78 Calm 30.20 1023 10 16 0.00 0.00
7:55 am 07:55 Cloudy 68 20 59 15 73 73 Calm 30.20 1023 10 16 0.00 0.00
8:15 am 08:15 Cloudy 68 20 59 15 73 73 Calm 30.20 1023 10 16 0.00 0.00
8:35 am 08:35 Cloudy 70 21 59 15 69 69 WSW 3 6 30.20 1023 10 16 0.00 0.00
8:55 am 08:55 Cloudy 70 21 59 15 69 69 Calm 30.20 1023 10 16 0.00 0.00
9:15 am 09:15 Cloudy 72 22 59 15 65 65 Calm 30.21 1023 10 16 0.00 0.00
9:35 am 09:35 Cloudy 72 22 61 16 69 69 Calm 30.21 1023 10 16 0.00 0.00
9:55 am 09:55 Cloudy 73 23 61 16 65 65 Calm 30.21 1023 10 16 0.00 0.00
10:15 am 10:15 Cloudy 73 23 59 15 61 61 Calm 30.20 1023 10 16 0.00 0.00
10:35 am 10:35 Cloudy 73 23 57 14 57 57 Calm 30.20 1023 10 16 0.00 0.00
10:55 am 10:55 Cloudy 75 24 59 15 57 57 Calm 30.20 1023 10 16 0.00 0.00
11:15 am 11:15 Cloudy 73 23 59 15 61 61 Calm 30.20 1023 10 16 0.00 0.00
11:35 am 11:35 Cloudy 73 23 61 16 65 65 NW 5 7 30.22 1023 10 16 0.00 0.00
11:55 am 11:55 Cloudy 75 24 61 16 61 61 WNW 6 9 30.22 1023 10 16 0.00 0.00
12:15 pm 12:15 Cloudy 73 23 59 15 61 61 W 5 7 30.18 1022 10 16 0.00 0.00
12:35 pm 12:35 Cloudy with Light Rain 72 22 61 16 69 69 W 7 11 30.16 1021 10 16 0.00 0.00
12:55 pm 12:55 Partly Cloudy 72 22 61 16 69 69 Calm 30.17 1022 10 16 0.00 0.00
1:15 pm 13:15 Sunny 75 24 61 16 61 61 SW 6 9 30.17 1022 10 16 0.00 0.00
1:35 pm 13:35 Partly Cloudy 77 25 63 17 61 61 SW 6 9 30.14 1021 10 16 0.00 0.00
1:55 pm 13:55 Partly Cloudy 79 26 61 16 54 54 WSW 6 9 30.14 1021 10 16 0.00 0.00
2:15 pm 14:15 Partly Cloudy 79 26 63 17 58 58 SW 6 9 30.13 1020 10 16 0.00 0.00
2:35 pm 14:35 Partly Cloudy 79 26 61 16 54 54 Calm 30.13 1020 10 16 0.00 0.00
2:55 pm 14:55 Sunny 81 27 61 16 51 51 SSW 5 7 30.12 1020 N/A 0.00 0.00
3:15 pm 15:15 Sunny 82 28 61 16 48 48 W 7 11 30.11 1020 10 16 0.00 0.00
3:35 pm 15:35 Sunny 81 27 61 16 51 51 S 7 11 30.10 1019 10 16 0.00 0.00
3:55 pm 15:55 Sunny 82 28 61 16 48 48 SW 6 9 30.10 1019 10 16 0.00 0.00
4:15 pm 16:15 Sunny 82 28 61 16 48 48 WSW 6 9 30.09 1019 10 16 0.00 0.00
4:35 pm 16:35 Sunny 84 29 61 16 45 45 S 8 13 30.07 1018 10 16 0.00 0.00
4:55 pm 16:55 Sunny 82 28 61 16 48 48 S 9 15 30.07 1018 10 16 0.00 0.00
5:15 pm 17:15 Sunny 84 29 61 16 45 45 S 7 11 30.07 1018 10 16 0.00 0.00
5:35 pm 17:35 Sunny 82 28 61 16 48 48 S 8 13 30.06 1018 10 16 0.00 0.00
5:55 pm 17:55 Sunny 84 29 61 16 45 45 SSW 7 11 30.05 1018 10 16 0.00 0.00
6:15 pm 18:15 Sunny 82 28 61 16 48 48 S 8 13 30.05 1018 10 16 0.00 0.00
6:35 pm 18:35 Sunny 84 29 61 16 45 45 SSW 7 11 30.05 1018 10 16 0.00 0.00
6:55 pm 18:55 Sunny 82 28 63 17 51 51 S 10 17 30.04 1017 10 16 0.00 0.00
7:15 pm 19:15 Sunny 82 28 63 17 51 51 S 9 15 30.04 1017 10 16 0.00 0.00
7:35 pm 19:35 Sunny 82 28 63 17 51 51 S 9 15 30.04 1017 10 16 0.00 0.00
7:55 pm 19:55 Sunny 81 27 63 17 54 54 S 8 13 30.04 1017 10 16 0.00 0.00
8:15 pm 20:15 Sunny 81 27 63 17 54 54 S 6 9 30.04 1017 10 16 0.00 0.00
8:35 pm 20:35 Sunny 79 26 63 17 58 58 S 7 11 30.04 1017 10 16 0.00 0.00
8:55 pm 20:55 Clear 79 26 63 17 58 58 S 5 7 30.04 1017 10 16 0.00 0.00
9:15 pm 21:15 Clear 77 25 64 18 65 65 S 6 9 30.04 1017 10 16 0.00 0.00
9:35 pm 21:35 Clear 77 25 64 18 65 65 S 6 9 30.04 1017 10 16 0.00 0.00
9:55 pm 21:55 Clear 75 24 64 18 69 69 SSW 6 9 30.06 1018 10 16 0.00 0.00
10:15 pm 22:15 Clear 75 24 64 18 69 69 S 5 7 30.06 1018 10 16 0.00 0.00
10:35 pm 22:35 Clear 73 23 64 18 74 74 Calm 30.06 1018 10 16 0.00 0.00
10:55 pm 22:55 Clear 73 23 64 18 74 74 Calm 30.06 1018 10 16 0.00 0.00
11:15 pm 23:15 Clear 73 23 64 18 74 74 Calm 30.06 1018 10 16 0.00 0.00
11:35 pm 23:35 Clear 73 23 64 18 74 74 S 3 6 30.06 1018 10 16 0.00 0.00
11:55 pm 23:55 Clear 73 23 64 18 74 74 SSE 3 6 30.05 1018 10 16 0.00 0.00

Powered by AerisWeather